| time (UTC) | temp F | wind direction | speed MPH | gust MPH | rain 1hr in | rain 24hr in | rain mn in | humidity % | barometer mb |
| 20260831201517 | 69 | 13 | 4.0 | 8.0 | 0.00 | 0.00 | 0.00 | 35 | 1017.3 |
| 20260831200034 | 68 | 61 | 3.0 | 8.0 | 0.00 | 0.00 | 0.00 | 41 | 1017.5 |
| 20260831194539 | 67 | 352 | 3.0 | 8.0 | 0.00 | 0.00 | 0.00 | 37 | 1017.6 |
| 20260831193008 | 66 | 21 | 2.0 | 7.0 | 0.00 | 0.00 | 0.00 | 40 | 1017.8 |
| 20260831191507 | 65 | 32 | 3.0 | 6.0 | 0.00 | 0.00 | 0.00 | 39 | 1018.0 |
| 20260831190006 | 64 | 352 | 4.0 | 6.0 | 0.00 | 0.00 | 0.00 | 46 | 1018.2 |
| 20260831184506 | 63 | 40 | 4.0 | 5.0 | 0.00 | 0.00 | 0.00 | 44 | 1018.4 |
| 20260831183010 | 62 | 32 | 2.0 | 5.0 | 0.00 | 0.00 | 0.00 | 41 | 1018.8 |
| 20260831181504 | 61 | 314 | 2.0 | 5.0 | 0.00 | 0.00 | 0.00 | 47 | 1019.2 |
| 20260831180008 | 60 | 30 | 3.0 | 5.0 | 0.00 | 0.00 | 0.00 | 48 | 1019.3 |
| 20260831174508 | 59 | 86 | 3.0 | 5.0 | 0.00 | 0.00 | 0.00 | 45 | 1019.5 |
| 20260831173011 | 58 | 26 | 1.0 | 5.0 | 0.00 | 0.00 | 0.00 | 45 | 1019.8 |
| 20260831171511 | 57 | 352 | 2.0 | 5.0 | 0.00 | 0.00 | 0.00 | 47 | 1020.0 |
| 20260831170008 | 56 | 26 | 3.0 | 5.0 | 0.00 | 0.00 | 0.00 | 52 | 1020.0 |
| 20260831164513 | 55 | 53 | 3.0 | 6.0 | 0.00 | 0.00 | 0.00 | 51 | 1020.3 |
| 20260831163005 | 54 | 346 | 3.0 | 4.0 | 0.00 | 0.00 | 0.00 | 52 | 1020.2 |
| 20260831161504 | 53 | 346 | 2.0 | 4.0 | 0.00 | 0.00 | 0.00 | 51 | 1020.4 |
| 20260831160016 | 53 | 9 | 1.0 | 4.0 | 0.00 | 0.00 | 0.00 | 50 | 1020.6 |
| 20260831154544 | 52 | 27 | 1.0 | 2.0 | 0.00 | 0.00 | 0.00 | 52 | 1020.7 |
| 20260831153016 | 51 | 352 | 1.0 | 3.0 | 0.00 | 0.00 | 0.00 | 53 | 1020.8 |
| 20260831151514 | 50 | 26 | 1.0 | 3.0 | 0.00 | 0.00 | 0.00 | 53 | 1020.9 |
| 20260831150010 | 49 | 82 | 1.0 | 3.0 | 0.00 | 0.00 | 0.00 | 54 | 1020.8 |
| 20260831144507 | 48 | 352 | 0.0 | 2.0 | 0.00 | 0.00 | 0.00 | 54 | 1020.8 |
| 20260831143007 | 47 | 111 | 0.0 | 2.0 | 0.00 | 0.00 | 0.00 | 58 | 1020.8 |
| 20260831141503 | 46 | 115 | 1.0 | 2.0 | 0.00 | 0.00 | 0.00 | 61 | 1020.6 |
| 20260831140019 | 45 | 95 | 1.0 | 2.0 | 0.00 | 0.00 | 0.00 | 62 | 1020.5 |
| 20260831134526 | 44 | 245 | 0.0 | 3.0 | 0.00 | 0.00 | 0.00 | 59 | 1020.4 |
| 20260831133026 | 43 | 227 | 1.0 | 2.0 | 0.00 | 0.00 | 0.00 | 62 | 1020.3 |
| 20260831131518 | 43 | 209 | 1.0 | 3.0 | 0.00 | 0.00 | 0.00 | 60 | 1020.1 |
| 20260831130013 | 43 | 260 | 0.0 | 2.0 | 0.00 | 0.00 | 0.00 | 63 | 1020.0 |
| 20260831124514 | 43 | 260 | 0.0 | 2.0 | 0.00 | 0.00 | 0.00 | 63 | 1020.1 |
| 20260831123010 | 44 | 281 | 1.0 | 2.0 | 0.00 | 0.00 | 0.00 | 59 | 1019.9 |
| 20260831121524 | 44 | 126 | 3.0 | 4.0 | 0.00 | 0.00 | 0.00 | 56 | 1020.0 |
| 20260831120037 | 45 | 122 | 3.0 | 4.0 | 0.00 | 0.00 | 0.00 | 56 | 1019.8 |
| 20260831114528 | 45 | 205 | 1.0 | 3.0 | 0.00 | 0.00 | 0.00 | 58 | 1019.7 |
| 20260831113024 | 45 | 221 | 0.0 | 3.0 | 0.00 | 0.00 | 0.00 | 59 | 1019.6 |
| 20260831111526 | 46 | 226 | 1.0 | 2.0 | 0.00 | 0.00 | 0.00 | 56 | 1019.6 |
| 20260831110030 | 47 | 200 | 0.0 | 5.0 | 0.00 | 0.00 | 0.00 | 55 | 1019.5 |
| 20260831104527 | 49 | 231 | 3.0 | 9.0 | 0.00 | 0.00 | 0.00 | 52 | 1019.4 |
| 20260831103012 | 47 | 152 | 1.0 | 4.0 | 0.00 | 0.00 | 0.00 | 52 | 1019.4 |
| 20260831101516 | 47 | 250 | 0.0 | 4.0 | 0.00 | 0.00 | 0.00 | 54 | 1019.3 |
| 20260831100007 | 48 | 234 | 4.0 | 9.0 | 0.00 | 0.00 | 0.00 | 52 | 1019.4 |
| 20260831094503 | 50 | 169 | 5.0 | 11.0 | 0.00 | 0.00 | 0.00 | 47 | 1019.3 |
| 20260831093004 | 49 | 143 | 6.0 | 10.0 | 0.00 | 0.00 | 0.00 | 48 | 1019.4 |
| 20260831091507 | 49 | 138 | 6.0 | 8.0 | 0.00 | 0.00 | 0.00 | 49 | 1019.5 |
| 20260831090020 | 49 | 143 | 6.0 | 8.0 | 0.00 | 0.00 | 0.00 | 49 | 1019.5 |
| 20260831084517 | 49 | 125 | 8.0 | 11.0 | 0.00 | 0.00 | 0.00 | 49 | 1019.5 |
| 20260831083013 | 49 | 125 | 5.0 | 10.0 | 0.00 | 0.00 | 0.00 | 48 | 1019.5 |
| 20260831081529 | 50 | 163 | 4.0 | 9.0 | 0.00 | 0.00 | 0.00 | 48 | 1019.5 |
| 20260831080014 | 50 | 136 | 6.0 | 9.0 | 0.00 | 0.00 | 0.00 | 48 | 1019.5 |
| 20260831074505 | 50 | 128 | 8.0 | 10.0 | 0.00 | 0.00 | 0.00 | 48 | 1019.4 |
| 20260831073012 | 50 | 123 | 5.0 | 10.0 | 0.00 | 0.00 | 0.00 | 48 | 1019.5 |
| 20260831071503 | 50 | 126 | 4.0 | 7.0 | 0.00 | 0.00 | 0.00 | 48 | 1019.5 |
| 20260831070028 | 50 | 123 | 3.0 | 4.0 | 0.00 | 0.00 | 0.00 | 48 | 1019.5 |
| 20260831064519 | 51 | 127 | 1.0 | 6.0 | 0.00 | 0.00 | 0.00 | 46 | 1019.6 |
| 20260831063025 | 51 | 128 | 4.0 | 8.0 | 0.00 | 0.00 | 0.00 | 45 | 1019.4 |
| 20260831061516 | 50 | 115 | 6.0 | 8.0 | 0.00 | 0.00 | 0.00 | 46 | 1019.4 |
| 20260831060012 | 52 | 103 | 7.0 | 11.0 | 0.00 | 0.00 | 0.00 | 45 | 1019.2 |
| 20260831054514 | 53 | 110 | 7.0 | 11.0 | 0.00 | 0.00 | 0.00 | 44 | 1019.0 |
| 20260831053007 | 52 | 139 | 9.0 | 12.0 | 0.00 | 0.00 | 0.00 | 44 | 1018.9 |
| 20260831051536 | 53 | 146 | 9.0 | 12.0 | 0.00 | 0.00 | 0.00 | 45 | 1018.8 |
| 20260831050029 | 53 | 129 | 10.0 | 14.0 | 0.00 | 0.00 | 0.00 | 43 | 1018.8 |
| 20260831044524 | 53 | 148 | 9.0 | 13.0 | 0.00 | 0.00 | 0.00 | 44 | 1018.8 |
| 20260831043023 | 54 | 112 | 9.0 | 14.0 | 0.00 | 0.00 | 0.00 | 44 | 1018.9 |
| 20260831041518 | 55 | 126 | 6.0 | 10.0 | 0.00 | 0.00 | 0.00 | 42 | 1018.8 |
| 20260831040015 | 55 | 122 | 8.0 | 9.0 | 0.00 | 0.00 | 0.00 | 42 | 1018.7 |
| 20260831034512 | 56 | 135 | 5.0 | 9.0 | 0.00 | 0.00 | 0.00 | 41 | 1018.6 |
| 20260831033012 | 56 | 124 | 4.0 | 8.0 | 0.00 | 0.00 | 0.00 | 39 | 1018.5 |
| 20260831031534 | 57 | 136 | 3.0 | 6.0 | 0.00 | 0.00 | 0.00 | 36 | 1018.3 |
| 20260831030027 | 58 | 132 | 2.0 | 6.0 | 0.00 | 0.00 | 0.00 | 36 | 1018.2 |
| 20260831024530 | 60 | 171 | 0.0 | 3.0 | 0.00 | 0.00 | 0.00 | 36 | 1018.0 |
| 20260831023027 | 61 | 224 | 1.0 | 2.0 | 0.00 | 0.00 | 0.00 | 34 | 1017.8 |
| 20260831021541 | 63 | 296 | 0.0 | 3.0 | 0.00 | 0.00 | 0.00 | 30 | 1017.7 |
| 20260831020018 | 64 | 242 | 2.0 | 3.0 | 0.00 | 0.00 | 0.00 | 30 | 1017.5 |
| 20260831014513 | 65 | 304 | 1.0 | 5.0 | 0.00 | 0.00 | 0.00 | 29 | 1017.5 |
| 20260831013015 | 66 | 352 | 2.0 | 5.0 | 0.00 | 0.00 | 0.00 | 28 | 1017.7 |
| 20260831011541 | 68 | 309 | 2.0 | 7.0 | 0.00 | 0.00 | 0.00 | 26 | 1017.8 |
| 20260831010036 | 69 | 273 | 1.0 | 7.0 | 0.00 | 0.00 | 0.00 | 24 | 1017.6 |
| 20260831004532 | 69 | 283 | 3.0 | 12.0 | 0.00 | 0.00 | 0.00 | 23 | 1017.7 |
| 20260831003029 | 69 | 260 | 2.0 | 8.0 | 0.00 | 0.00 | 0.00 | 24 | 1017.6 |
| 20260831001536 | 70 | 279 | 5.0 | 10.0 | 0.00 | 0.00 | 0.00 | 24 | 1017.6 |
| 20260831000025 | 69 | 316 | 2.0 | 8.0 | 0.00 | 0.00 | 0.00 | 26 | 1017.6 |
| 20260830234525 | 69 | 314 | 5.0 | 9.0 | 0.00 | 0.00 | 0.00 | 25 | 1017.5 |
| 20260830233033 | 70 | 315 | 3.0 | 7.0 | 0.00 | 0.00 | 0.00 | 23 | 1017.5 |
| 20260830231537 | 71 | 237 | 1.0 | 10.0 | 0.00 | 0.00 | 0.00 | 25 | 1017.5 |
| 20260830230033 | 70 | 261 | 5.0 | 13.0 | 0.00 | 0.00 | 0.00 | 24 | 1017.6 |
| 20260830224533 | 70 | 227 | 0.0 | 5.0 | 0.00 | 0.00 | 0.00 | 29 | 1017.6 |
| 20260830223032 | 70 | 273 | 4.0 | 7.0 | 0.00 | 0.00 | 0.00 | 27 | 1017.6 |
| 20260830221532 | 69 | 247 | 3.0 | 6.0 | 0.00 | 0.00 | 0.00 | 26 | 1017.8 |
| 20260830220036 | 68 | 114 | 2.0 | 5.0 | 0.00 | 0.00 | 0.00 | 27 | 1017.9 |
| 20260830214527 | 69 | 140 | 0.0 | 6.0 | 0.00 | 0.00 | 0.00 | 29 | 1018.0 |
| 20260830213034 | 67 | 360 | 1.0 | 4.0 | 0.00 | 0.00 | 0.00 | 29 | 1017.9 |
| 20260830211531 | 69 | 123 | 4.0 | 10.0 | 0.00 | 0.00 | 0.00 | 28 | 1017.9 |
| 20260830210034 | 67 | 236 | 3.0 | 5.0 | 0.00 | 0.00 | 0.00 | 33 | 1017.9 |
| 20260830204537 | 64 | 307 | 2.0 | 8.0 | 0.00 | 0.00 | 0.00 | 38 | 1017.9 |
| 20260830203033 | 64 | 16 | 6.0 | 10.0 | 0.00 | 0.00 | 0.00 | 34 | 1018.0 |